This demonstration page uses our WeatherBlox Daily Observations layout. Learn more.

Left ArrowRight Arrow

36.17497, -115.13722

Hourly Observations for October 27, 2019

Temp ( °F °C ) Dew Point ( °F °C ) Humidity (%) Winds ( mph kmh ) Pressure ( in mb ) Visibility ( mi km ) Precip ( " mm )
12:53 am 00:53 Clear 62 16.7 24 -4.4 23 23 N N/A 29.6 1002 10 16.0934 N/A
1:53 am 01:53 Clear 63 17.2 22 -5.6 21 21 N N/A 29.58 1002 10 16.0934 N/A
2:53 am 02:53 Clear 59 15 23 -5 25 25 N 3 6 29.57 1001 10 16.0934 N/A
3:53 am 03:53 Clear 58 14.4 23 -5 26 26 VRB 3 6 29.56 1001 10 16.0934 N/A
4:53 am 04:53 Clear 59 15 23 -5 25 25 NNW 14 22 29.58 1002 10 16.0934 N/A
5:53 am 05:53 Clear 59 15 21 -6.1 23 23 N 14 22 29.62 1003 10 16.0934 N/A
6:53 am 06:53 Clear 63 17.2 17 -8.3 17 17 NW 30 48 29.64 1004 10 16.0934 N/A
7:53 am 07:53 Sunny 61 16.1 16 -8.9 17 17 NW 29 46 29.71 1006 10 16.0934 N/A
8:53 am 08:53 Sunny 60 15.6 15 -9.4 17 17 NW 25 41 29.77 1008 10 16.0934 N/A
9:53 am 09:53 Sunny 61 16.1 14 -10 16 16 NW 24 39 29.8 1009 10 16.0934 N/A
10:53 am 10:53 Sunny 63 17.2 14 -10 15 15 NNW 25 41 29.83 1010 10 16.0934 N/A
11:53 am 11:53 Sunny 65 18.3 13 -10.6 13 13 NW 21 33 29.83 1010 10 16.0934 N/A
12:53 pm 12:53 Sunny 66 18.9 12 -11.1 12 12 NNW 22 35 29.81 1010 10 16.0934 N/A
1:53 pm 13:53 Sunny 67 19.4 12 -11.1 12 12 NW 23 37 29.8 1009 10 16.0934 N/A
2:53 pm 14:53 Sunny 67 19.4 12 -11.1 12 12 NNW 17 28 29.8 1009 10 16.0934 N/A
3:53 pm 15:53 Sunny 66 18.9 12 -11.1 12 12 NNW 24 39 29.81 1010 10 16.0934 N/A
4:53 pm 16:53 Sunny 63 17.2 12 -11.1 13 13 NNW 18 30 29.83 1010 10 16.0934 N/A
5:53 pm 17:53 Clear 60 15.6 13 -10.6 16 16 NW 24 39 29.85 1011 10 16.0934 N/A
6:53 pm 18:53 Clear 59 15 14 -10 17 17 NNW 20 31 29.88 1012 10 16.0934 N/A
7:53 pm 19:53 Mostly Cloudy 58 14.4 12 -11.1 16 16 NW 23 37 29.91 1013 10 16.0934 N/A
8:53 pm 20:53 Mostly Cloudy 57 13.9 11 -11.7 16 16 NNW 22 35 29.94 1014 10 16.0934 N/A
9:53 pm 21:53 Clear 55 12.8 10 -12.2 16 16 NNW 23 37 29.99 1016 10 16.0934 N/A
10:53 pm 22:53 Clear 53 11.7 8 -13.3 16 16 NNW 17 28 30.03 1017 10 16.0934 N/A
11:53 pm 23:53 Clear 52 11.1 6 -14.4 15 15 NW 20 31 30.06 1018 10 16.0934 N/A

Powered by AerisWeather